Location: Ellerstadt
(49.4644°N, 8.2615°E)
Time: 09:40:48
(UTC+00:00)

SeaSat 1 - Pass Details

Date: 03 March 2021
Orbit: 744 x 747 km, 108.0° (Epoch: 12 April)

Event Time Altitude Azimuth Distance (km) Brightness Sun altitude
Rises 17:55:13 0° 36° (NE) 3,202 5.4 -7.6°
Reaches altitude 10° 17:57:44 10° 47° (NE) 2,274 4.5 -8.0°
Maximum altitude 18:02:08 32° 110° (ESE) 1,272 3.2 -8.7°
Drops below altitude 10° 18:06:31 10° 173° (S) 2,260 4.9 -9.5°
Sets 18:09:00 0° 183° (S) 3,179 5.7 -9.9°
